Location: Lancaster
(54.0470°N, 2.8020°W)
Time: 08:08:28
(UTC+01:00)

COSMOS 2428 - Visible Passes

Search period start: 06 July 2015 00:00
Search period end: 16 July 2015 00:00
Orbit: 843 x 858 km, 71.0° (Epoch: 06 July)

Date Brightness Start Highest point End Pass type
(mag) Time Alt. Az. Time Alt. Az. Time Alt. Az.
06 Jul 4.8 01:30:47 10° WNW 01:33:44 14° W 01:36:25 10° SW visible
06 Jul 2.9 23:32:21 10° NW 23:38:04 67° WSW 23:42:59 14° SSE visible
07 Jul 4.8 01:18:26 10° WNW 01:21:22 14° W 01:24:04 10° SW visible
07 Jul 2.9 23:19:59 10° NW 23:25:42 67° WSW 23:30:50 13° SSE visible
08 Jul 4.8 01:06:03 10° WNW 01:09:01 14° W 01:11:43 10° SW visible
08 Jul 2.9 23:07:37 10° NW 23:13:21 67° WSW 23:18:43 11° SSE visible
09 Jul 4.8 00:53:41 10° WNW 00:56:39 14° W 00:59:22 10° SW visible
09 Jul 3.0 22:55:16 10° NW 23:00:59 67° WSW 23:06:38 10° SSE visible
10 Jul 4.9 00:41:19 10° WNW 00:44:18 14° W 00:47:01 10° SW visible
10 Jul 3.0 22:42:54 10° NW 22:48:38 68° WSW 22:54:18 10° SSE visible
11 Jul 4.9 00:28:57 10° WNW 00:31:56 14° W 00:34:41 10° SW visible
11 Jul 3.0 22:30:33 10° NW 22:36:16 68° WSW 22:41:56 10° SSE visible
12 Jul 4.9 00:16:35 10° WNW 00:19:35 14° W 00:22:20 10° SW visible
13 Jul 4.9 00:04:13 10° WNW 00:07:13 14° W 00:09:59 10° SW visible
13 Jul 5.0 23:51:51 10° WNW 23:54:52 14° W 23:57:38 10° SW visible
14 Jul 5.0 23:39:29 10° WNW 23:42:31 14° W 23:45:17 10° SW visible
15 Jul 5.0 23:27:06 10° WNW 23:30:09 14° W 23:32:56 10° SW visible
